TimeEDT,TemperatureF,Dew PointF,Humidity,Sea Level PressureIn,VisibilityMPH,Wind Direction,Wind SpeedMPH,Gust SpeedMPH,PrecipitationIn,Events,Conditions,WindDirDegrees,DateUTC
12:15 AM,49.1,42.8,79,30.25,10.0,NE,6.9,-,N/A,,Clear,50,2013-05-04 04:15:00
12:35 AM,49.1,43.0,79,30.24,10.0,NE,5.8,-,N/A,,Clear,50,2013-05-04 04:35:00
12:55 AM,48.6,43.2,82,30.24,10.0,NE,9.2,-,N/A,,Clear,50,2013-05-04 04:55:00
1:15 AM,48.2,43.0,82,30.23,10.0,NE,6.9,-,N/A,,Clear,40,2013-05-04 05:15:00
1:35 AM,48.0,42.8,82,30.22,10.0,NE,8.1,-,N/A,,Clear,40,2013-05-04 05:35:00
1:55 AM,47.7,43.0,84,30.22,10.0,NE,8.1,-,N/A,,Clear,40,2013-05-04 05:55:00
2:15 AM,47.5,43.0,84,30.21,10.0,NE,8.1,-,N/A,,Clear,40,2013-05-04 06:15:00
2:35 AM,47.3,42.8,84,30.20,10.0,NE,8.1,-,N/A,,Clear,40,2013-05-04 06:35:00
2:55 AM,47.3,43.0,85,30.20,10.0,NE,5.8,-,N/A,,Mostly Cloudy,40,2013-05-04 06:55:00
3:15 AM,47.5,43.2,85,30.20,10.0,NE,10.4,-,N/A,,Overcast,50,2013-05-04 07:15:00
3:35 AM,47.5,43.2,85,30.20,10.0,NE,9.2,-,N/A,,Overcast,40,2013-05-04 07:35:00
3:55 AM,47.5,43.2,85,30.20,10.0,NE,9.2,-,N/A,,Overcast,50,2013-05-04 07:55:00
4:15 AM,47.5,43.2,85,30.21,10.0,NE,11.5,18.4,N/A,,Overcast,50,2013-05-04 08:15:00
4:35 AM,47.3,43.0,85,30.20,10.0,NE,10.4,-,N/A,,Overcast,40,2013-05-04 08:35:00
4:55 AM,47.3,43.2,86,30.20,10.0,NE,9.2,17.3,N/A,,Overcast,40,2013-05-04 08:55:00
5:15 AM,46.9,43.2,87,30.20,10.0,NE,10.4,17.3,N/A,,Overcast,50,2013-05-04 09:15:00
5:35 AM,46.9,43.3,87,30.20,10.0,NE,10.4,-,N/A,,Overcast,40,2013-05-04 09:35:00
5:55 AM,46.8,43.3,88,30.20,10.0,NE,11.5,-,N/A,,Overcast,50,2013-05-04 09:55:00
6:15 AM,46.6,43.3,88,30.20,10.0,NE,9.2,17.3,N/A,,Overcast,40,2013-05-04 10:15:00
6:35 AM,46.6,43.7,90,30.21,10.0,NE,8.1,-,N/A,,Overcast,50,2013-05-04 10:35:00
6:55 AM,46.6,43.7,90,30.21,7.0,NE,11.5,16.1,N/A,,Overcast,50,2013-05-04 10:55:00
7:15 AM,46.4,43.7,90,30.22,7.0,NE,12.7,16.1,N/A,,Overcast,50,2013-05-04 11:15:00
7:35 AM,46.4,44.1,92,30.22,4.0,NE,10.4,-,N/A,,Overcast,40,2013-05-04 11:35:00
7:55 AM,46.4,44.6,93,30.22,4.0,NE,11.5,16.1,N/A,,Overcast,50,2013-05-04 11:55:00
8:15 AM,46.8,45.0,93,30.22,4.0,NE,9.2,-,N/A,,Overcast,50,2013-05-04 12:15:00
8:35 AM,46.9,45.0,93,30.22,4.0,NE,9.2,16.1,N/A,,Overcast,40,2013-05-04 12:35:00
8:55 AM,47.3,45.5,93,30.22,4.0,NE,9.2,-,N/A,,Overcast,40,2013-05-04 12:55:00
9:15 AM,47.5,45.1,92,30.22,5.0,NE,12.7,19.6,N/A,,Overcast,40,2013-05-04 13:15:00
9:35 AM,48.2,45.5,90,30.22,7.0,NE,9.2,-,N/A,,Overcast,40,2013-05-04 13:35:00
9:55 AM,49.1,45.7,88,30.22,10.0,NE,8.1,-,N/A,,Overcast,40,2013-05-04 13:55:00
10:15 AM,49.5,45.5,86,30.22,10.0,NE,8.1,-,N/A,,Overcast,50,2013-05-04 14:15:00
10:35 AM,49.5,46.0,88,30.21,5.0,NE,10.4,16.1,N/A,,Overcast,50,2013-05-04 14:35:00
10:55 AM,49.8,46.6,89,30.21,3.0,NE,10.4,-,N/A,,Overcast,40,2013-05-04 14:55:00
11:15 AM,50.2,47.1,89,30.21,5.0,NE,9.2,-,N/A,,Overcast,40,2013-05-04 15:15:00
11:35 AM,50.7,47.3,88,30.21,7.0,NE,10.4,-,N/A,,Overcast,40,2013-05-04 15:35:00
11:55 AM,50.7,47.1,87,30.21,7.0,NE,8.1,-,N/A,,Overcast,50,2013-05-04 15:55:00
12:15 PM,53.4,47.5,80,30.20,10.0,NE,8.1,-,N/A,,Overcast,50,2013-05-04 16:15:00
12:35 PM,53.8,47.5,79,30.20,10.0,NE,8.1,-,N/A,,Overcast,40,2013-05-04 16:35:00
12:55 PM,54.0,47.7,79,30.19,10.0,NNE,8.1,-,N/A,,Overcast,30,2013-05-04 16:55:00
1:15 PM,55.2,48.4,78,30.18,10.0,NNE,9.2,-,N/A,,Overcast,30,2013-05-04 17:15:00
1:35 PM,55.8,48.6,77,30.18,10.0,NNE,6.9,-,N/A,,Overcast,20,2013-05-04 17:35:00
1:55 PM,55.2,48.9,79,30.17,10.0,NE,8.1,-,N/A,,Overcast,40,2013-05-04 17:55:00
2:15 PM,54.9,48.9,80,30.17,10.0,NNE,9.2,-,N/A,,Overcast,30,2013-05-04 18:15:00
2:35 PM,54.7,49.5,83,30.16,10.0,NNE,8.1,-,N/A,,Overcast,30,2013-05-04 18:35:00
2:55 PM,54.7,50.0,84,30.16,10.0,NNE,5.8,-,N/A,,Overcast,30,2013-05-04 18:55:00
3:15 PM,56.3,50.4,80,30.15,10.0,NE,8.1,-,N/A,,Overcast,40,2013-05-04 19:15:00
3:35 PM,57.9,50.7,77,30.14,10.0,NE,6.9,-,N/A,,Overcast,40,2013-05-04 19:35:00
3:55 PM,56.5,49.3,77,30.14,10.0,NE,8.1,-,N/A,,Overcast,40,2013-05-04 19:55:00
4:15 PM,56.8,49.5,76,30.13,10.0,NNE,5.8,-,N/A,,Overcast,30,2013-05-04 20:15:00
4:35 PM,56.7,50.2,79,30.13,10.0,NNE,6.9,-,N/A,,Overcast,30,2013-05-04 20:35:00
4:55 PM,58.3,51.3,77,30.13,10.0,NE,8.1,-,N/A,,Overcast,40,2013-05-04 20:55:00
5:15 PM,58.3,50.7,76,30.12,10.0,NE,8.1,-,N/A,,Overcast,50,2013-05-04 21:15:00
5:35 PM,58.5,49.6,72,30.12,10.0,ENE,12.7,18.4,N/A,,Overcast,60,2013-05-04 21:35:00
5:55 PM,59.0,50.9,74,30.12,10.0,NE,9.2,-,N/A,,Overcast,40,2013-05-04 21:55:00
6:15 PM,58.1,49.6,73,30.13,10.0,East,10.4,16.1,N/A,,Overcast,80,2013-05-04 22:15:00
6:35 PM,57.6,50.2,76,30.12,10.0,NE,10.4,-,N/A,,Overcast,40,2013-05-04 22:35:00
6:55 PM,56.8,49.5,76,30.12,10.0,ENE,12.7,17.3,N/A,,Overcast,60,2013-05-04 22:55:00
7:15 PM,56.5,49.3,77,30.12,10.0,ENE,10.4,-,N/A,,Overcast,60,2013-05-04 23:15:00
7:35 PM,56.3,49.3,77,30.12,10.0,NE,9.2,-,N/A,,Overcast,50,2013-05-04 23:35:00
7:55 PM,55.9,49.3,78,30.13,10.0,ENE,6.9,-,N/A,,Overcast,60,2013-05-04 23:55:00
8:15 PM,55.6,49.3,79,30.13,10.0,NE,5.8,-,N/A,,Overcast,50,2013-05-05 00:15:00
8:35 PM,55.4,49.3,80,30.14,10.0,NE,3.5,-,N/A,,Overcast,40,2013-05-05 00:35:00
8:55 PM,55.4,49.3,80,30.15,10.0,NE,4.6,-,N/A,,Overcast,50,2013-05-05 00:55:00
9:15 PM,55.4,49.1,79,30.14,10.0,NE,8.1,-,N/A,,Overcast,50,2013-05-05 01:15:00
9:35 PM,55.0,48.7,79,30.15,10.0,NE,5.8,-,N/A,,Overcast,50,2013-05-05 01:35:00
9:55 PM,54.5,48.2,79,30.16,10.0,ENE,8.1,-,N/A,,Overcast,70,2013-05-05 01:55:00
10:15 PM,54.1,48.2,80,30.16,10.0,ENE,8.1,-,N/A,,Overcast,70,2013-05-05 02:15:00
10:35 PM,53.6,47.7,80,30.15,10.0,ENE,8.1,-,N/A,,Mostly Cloudy,60,2013-05-05 02:35:00
10:55 PM,53.2,47.8,82,30.14,10.0,NE,5.8,-,N/A,,Mostly Cloudy,40,2013-05-05 02:55:00
11:35 PM,52.9,46.4,79,30.14,10.0,ENE,8.1,-,N/A,,Overcast,60,2013-05-05 03:35:00
11:55 PM,52.7,46.0,78,30.15,10.0,ENE,5.8,-,N/A,,Overcast,70,2013-05-05 03:55:00